Location: Unspecified
(0.0000°N, 0.0000°E)
Time: 08:02:30
(UTC+00:00)

Transit 4A - Pass Details

Date: 10 October 2023
Orbit: 864 x 979 km, 66.8° (Epoch: 05 December)

Event Time Altitude Azimuth Distance (km) Brightness Sun altitude
Rises 08:09:23 0° 222° (SW) 3,562 10.7 35.3°
Reaches altitude 10° 08:12:14 10° 233° (SW) 2,636 10.0 36.0°
Maximum altitude 08:17:22 28° 290° (WNW) 1,702 9.1 37.3°
Drops below altitude 10° 08:22:36 10° 347° (NNW) 2,687 10.2 38.6°
Sets 08:25:34 0° 359° (N) 3,644 10.9 39.3°
